Time,TemperatureF,DewpointF,PressureIn,WindDirection,WindDirectionDegrees,WindSpeedMPH,WindSpeedGustMPH,Humidity,HourlyPrecipIn,Conditions,Clouds,dailyrainin,SolarRadiationWatts/m^2,SoftwareType,DateUTC
2013-01-19 00:00:00,23.0,22.0,-100.00,West,270,1.0,-999.0,93,-99.99,,,-99.99,0.000000,,2013-01-19 06:00:00,
2013-01-19 00:43:00,23.0,22.0,-100.00,West,270,1.0,-999.0,93,-99.99,,,-99.99,0.000000,,2013-01-19 06:43:00,
2013-01-19 00:53:00,23.0,22.0,-100.00,West,270,1.0,-999.0,93,-99.99,,,-99.99,0.000000,,2013-01-19 06:53:00,
2013-01-19 03:00:00,19.0,18.0,-100.00,WNW,292,0.0,-999.0,95,-99.99,,,-99.99,0.000000,,2013-01-19 09:00:00,
2013-01-19 03:43:00,19.0,18.0,-100.00,WNW,292,0.0,-999.0,95,-99.99,,,-99.99,0.000000,,2013-01-19 09:43:00,
2013-01-19 03:53:00,19.0,18.0,-100.00,WNW,292,0.0,-999.0,95,-99.99,,,-99.99,0.000000,,2013-01-19 09:53:00,
2013-01-19 06:00:00,22.0,21.0,-100.00,NW,315,0.0,-999.0,95,-99.99,,,-99.99,0.000000,,2013-01-19 12:00:00,
2013-01-19 06:48:00,22.0,21.0,-100.00,NW,315,0.0,-999.0,95,-99.99,,,-99.99,0.000000,,2013-01-19 12:48:00,
2013-01-19 09:00:00,25.0,23.0,-100.00,SSE,157,2.0,-999.0,92,-99.99,,,-99.99,26.680000,,2013-01-19 15:00:00,
2013-01-19 09:43:00,25.0,23.0,-100.00,SSE,157,2.0,-999.0,92,-99.99,,,-99.99,26.680000,,2013-01-19 15:43:00,
2013-01-19 09:53:00,25.0,23.0,-100.00,SSE,157,2.0,-999.0,92,-99.99,,,-99.99,26.680000,,2013-01-19 15:53:00,
2013-01-19 12:00:00,35.0,33.0,-100.00,South,180,10.0,-999.0,89,0.01,,,-99.99,221.559998,,2013-01-19 18:00:00,
2013-01-19 12:48:00,35.0,33.0,-100.00,South,180,10.0,-999.0,89,0.01,,,-99.99,221.559998,,2013-01-19 18:48:00,
2013-01-19 15:00:00,40.0,32.0,-100.00,SW,225,7.0,-999.0,73,-99.99,,,-99.99,92.800003,,2013-01-19 21:00:00,
2013-01-19 15:53:00,40.0,32.0,-100.00,SW,225,7.0,-999.0,73,-99.99,,,-99.99,92.800003,,2013-01-19 21:53:00,
2013-01-19 18:00:00,39.0,30.0,-100.00,WSW,247,11.0,-999.0,71,-99.99,,,-99.99,0.000000,,2013-01-20 00:00:00,
2013-01-19 18:48:00,39.0,30.0,-100.00,WSW,247,11.0,-999.0,71,-99.99,,,-99.99,0.000000,,2013-01-20 00:48:00,
2013-01-19 18:57:00,39.0,30.0,-100.00,WSW,247,11.0,-999.0,71,-99.99,,,-99.99,0.000000,,2013-01-20 00:57:00,
2013-01-19 21:00:00,31.0,25.0,-100.00,West,270,13.0,-999.0,80,-99.99,,,-99.99,0.000000,,2013-01-20 03:00:00,
2013-01-19 21:47:00,31.0,25.0,-100.00,West,270,13.0,-999.0,80,-99.99,,,-99.99,0.000000,,2013-01-20 03:47:00,
2013-01-19 21:58:00,31.0,25.0,-100.00,West,270,13.0,-999.0,80,-99.99,,,-99.99,0.000000,,2013-01-20 03:58:00,